Temp
70 72 69 71 63 58 50 57 65 67 70 76 79 76 71 73 70 60 74 77 77 73 75 78 79 80 80 80 79 79 79 79 79 79 79 79 79 79 79 79 80 80 81 81 80 80 80 80 80
72 75 71 64 57 51 51 62 67 70 76 78 78 76 73 69 76 73 74 78 77 74 73 75 79 79 80 79 79 79 79 79 79 79 79 79 79 79 79 79 80 80 80 80 80 80 80 80 80
72 75 67 58 51 51 53 62 65 70 79 77 75 80 76 70 76 76 78 78 76 72 72 75 79 79 79 79 79 79 79 79 79 79 79 79 79 79 79 79 79 80 80 80 80 80 80 80 80
73 70 65 58 51 56 62 63 67 69 75 74 77 71 78 82 80 80 81 78 73 71 73 77 78 79 79 79 79 79 79 79 79 79 79 79 79 79 78 79 79 79 80 80 80 80 80 80 79
68 62 56 51 52 60 64 68 68 67 72 74 76 70 71 80 82 81 79 78 72 71 73 75 78 79 79 80 79 79 79 79 79 79 79 79 79 79 79 79 79 80 80 80 80 80 79 79 78
65 60 53 49 54 64 66 70 69 69 73 74 72 72 70 80 79 79 79 75 75 72 73 74 78 78 78 79 79 78 78 78 79 79 79 79 79 79 79 79 79 79 79 79 80 79 78 78 78
61 56 50 50 56 60 67 72 69 69 69 71 77 68 71 77 79 80 78 76 74 73 73 73 74 77 79 78 78 78 78 78 78 79 79 79 79 79 79 79 79 79 79 79 79 78 78 78 77
63 59 50 53 57 59 71 70 71 69 70 80 81 67 66 77 81 79 77 74 72 73 73 72 73 73 73 74 78 78 78 78 79 79 78 77 78 79 79 79 78 79 80 79 79 78 78 78 78
65 55 51 58 59 59 67 67 73 77 74 76 79 76 80 82 80 76 73 71 72 74 71 71 71 71 71 72 76 78 80 79 79 76 77 73 69 70 73 78 79 79 80 80 80 79 79 78 77
62 54 59 66 68 64 71 70 72 72 74 74 76 80 83 82 78 75 73 71 71 70 70 69 70 70 70 78 71 70 72 69 68 69 69 67 66 68 74 75 78 78 78 78 77 78 78 75 68
60 60 64 70 71 74 74 72 75 72 68 73 73 76 79 79 78 76 75 74 73 71 70 70 69 69 69 70 67 67 67 66 66 69 67 67 69 67 68 67 68 67 74 69 70 70 69 68 67
59 69 70 71 74 70 71 75 74 74 73 80 80 80 80 77 76 76 76 74 71 71 71 71 70 68 67 67 66 67 66 65 65 67 68 66 66 66 67 66 67 66 67 66 66 65 67 66 67
62 69 72 75 69 73 76 74 73 75 78 81 81 80 79 77 77 77 78 75 72 70 69 68 69 67 68 67 65 65 65 66 67 67 67 66 65 65 65 66 66 65 65 64 64 64 64 64 65
69 70 71 70 67 69 71 72 76 75 78 78 78 77 78 77 74 73 73 71 71 70 68 67 68 67 67 66 65 66 66 67 66 66 67 67 65 63 63 63 63 63 63 63 62 62 62 62 62
69 65 69 68 68 69 76 68 71 75 78 76 76 75 75 75 75 75 76 72 72 71 69 67 67 67 67 67 67 66 66 67 66 66 67 67 64 63 62 62 61 62 62 62 61 61 60 60 62
63 60 56 67 71 72 70 61 71 75 75 74 75 74 73 71 75 78 76 75 72 72 69 69 76 68 68 67 67 67 66 65 65 65 63 65 65 62 60 60 59 59 59 58 57 56 55 55 54
57 52 54 64 66 69 67 60 71 74 75 73 73 71 72 71 71 76 77 75 74 74 73 71 70 69 68 67 67 65 65 64 62 62 61 62 64 63 58 56 56 56 55 54 53 52 51 52 54
52 54 56 57 66 67 62 64 70 72 72 72 73 72 72 72 72 76 75 77 75 75 70 69 67 66 66 66 65 64 63 62 62 60 61 60 60 60 56 54 53 53 52 51 51 49 50 50 51
59 56 56 63 67 63 64 64 68 72 69 71 72 68 72 72 76 76 74 74 71 67 66 65 65 63 64 63 62 62 59 58 58 59 60 58 57 57 53 52 51 51 49 49 50 48 48 49 50
60 56 59 63 68 64 61 64 65 70 72 72 72 70 72 71 70 72 69 68 66 63 62 62 61 61 60 60 59 59 58 57 55 56 56 55 55 55 56 51 49 49 47 47 47 46 47 47 48
59 56 58 60 64 62 58 58 59 64 66 67 70 73 71 72 71 71 67 63 63 61 61 60 60 60 59 58 58 56 55 56 53 52 50 51 54 53 52 51 49 47 46 45 49 50 50 49 52
55 66 66 63 57 52 58 48 55 59 63 67 72 72 72 71 73 67 62 60 61 61 61 60 59 58 57 55 55 54 52 49 48 47 48 49 51 51 52 51 49 47 48 49 53 54 53 51 48
62 67 65 62 54 49 54 49 55 57 61 62 63 64 67 69 67 62 60 61 61 60 58 57 56 54 53 53 53 52 47 46 46 45 45 45 47 49 51 51 49 50 51 51 52 52 51 51 49
69 63 56 51 49 43 48 49 50 54 59 62 58 58 61 61 60 60 61 60 58 58 56 54 52 51 51 51 52 48 45 44 43 43 43 43 44 48 48 50 50 51 52 52 52 52 51 51 51
60 51 42 42 40 42 50 48 48 56 60 60 56 56 58 59 59 58 57 56 56 54 54 53 50 49 50 51 48 45 44 44 43 42 42 42 44 45 47 48 49 51 52 51 51 50 50 50 49
56 54 41 38 36 43 51 45 49 60 61 62 60 58 59 57 57 56 56 55 54 54 51 50 49 49 50 47 45 45 44 43 42 42 42 42 42 46 51 51 49 50 49 51 51 50 49 50 49
56 51 55 45 42 41 45 51 56 59 59 60 58 57 55 56 56 56 56 55 52 50 48 49 48 47 45 45 45 44 43 43 42 42 42 42 44 51 52 51 49 50 51 51 50 49 48 49 48
61 61 50 44 38 36 43 44 45 51 54 56 54 53 54 54 53 53 52 51 50 50 49 48 47 45 46 45 44 44 43 43 43 42 43 44 48 51 51 50 50 50 51 50 50 49 49 48 48
57 51 48 46 42 36 34 41 52 52 54 53 52 53 53 52 52 51 50 50 50 49 48 47 46 45 44 45 43 43 43 43 43 43 44 45 46 50 50 50 50 50 50 51 49 49 49 49 49
57 51 49 42 40 39 38 41 58 55 54 56 55 55 52 51 50 50 49 50 48 48 48 46 45 45 44 43 43 43 42 42 42 43 44 46 45 51 50 50 50 50 49 50 49 48 50 49 49
MSLP
1010.89 1011.03 1011.30 1011.49 1012.72 1013.04 1014.34 1014.62 1013.24 1012.41 1011.99 1011.42 1011.21 1011.62 1011.97 1012.39 1012.82 1013.69 1013.51 1013.65 1013.75 1014.36 1014.42 1014.38 1014.37 1014.28 1014.43 1014.62 1014.76 1014.96 1015.11 1015.24 1015.34 1015.52 1015.61 1015.77 1015.95 1016.01 1016.12 1016.21 1016.16 1016.19 1016.14 1016.11 1016.07 1016.03 1015.97 1015.94 1015.89
1010.74 1010.90 1011.33 1011.92 1012.89 1013.98 1014.89 1013.90 1012.97 1011.30 1011.08 1010.77 1011.17 1011.53 1011.72 1012.51 1012.61 1013.13 1013.49 1013.83 1013.87 1014.34 1014.63 1014.59 1014.50 1014.61 1014.65 1014.83 1015.05 1015.19 1015.27 1015.43 1015.55 1015.65 1015.80 1015.87 1016.00 1016.10 1016.19 1016.27 1016.27 1016.28 1016.26 1016.15 1016.09 1016.06 1016.06 1016.05 1016.01
1010.69 1010.78 1011.73 1012.47 1013.70 1013.99 1013.80 1013.31 1012.24 1011.59 1011.19 1010.85 1011.32 1011.44 1011.56 1012.38 1012.76 1012.89 1013.06 1013.77 1014.13 1014.59 1014.76 1014.82 1014.79 1014.85 1014.96 1015.10 1015.39 1015.47 1015.60 1015.68 1015.84 1015.94 1015.99 1016.01 1016.14 1016.27 1016.32 1016.40 1016.43 1016.39 1016.33 1016.21 1016.14 1016.04 1016.07 1016.02 1015.89
1010.71 1011.41 1012.51 1012.75 1013.56 1012.87 1012.34 1012.13 1011.97 1011.66 1011.32 1011.50 1011.45 1011.95 1011.74 1011.78 1012.18 1012.56 1013.48 1014.07 1014.37 1014.73 1014.91 1014.98 1015.03 1015.10 1015.24 1015.35 1015.51 1015.64 1015.75 1015.89 1016.02 1016.09 1016.09 1016.18 1016.23 1016.30 1016.48 1016.45 1016.45 1016.41 1016.36 1016.20 1016.07 1016.07 1016.02 1015.92 1015.87
1011.21 1012.13 1013.05 1013.50 1013.13 1012.49 1011.83 1011.42 1011.54 1011.63 1011.72 1011.62 1011.75 1011.99 1012.00 1012.25 1012.12 1012.99 1013.78 1014.23 1014.71 1014.97 1014.93 1015.08 1015.20 1015.36 1015.49 1015.61 1015.74 1015.86 1015.98 1016.08 1016.14 1016.20 1016.30 1016.25 1016.29 1016.39 1016.42 1016.40 1016.28 1016.24 1016.23 1016.13 1015.98 1015.94 1015.88 1015.82 1015.67
1011.95 1012.86 1013.53 1013.68 1012.83 1012.12 1011.82 1011.58 1011.52 1011.93 1011.75 1011.72 1011.95 1011.95 1012.50 1012.50 1012.86 1013.52 1013.91 1014.56 1014.90 1015.00 1014.93 1014.98 1015.31 1015.53 1015.67 1015.81 1015.90 1015.98 1016.11 1016.17 1016.23 1016.22 1016.31 1016.21 1016.24 1016.22 1016.25 1016.19 1016.26 1016.16 1016.09 1015.97 1015.88 1015.84 1015.78 1015.64 1015.53
1012.17 1013.23 1013.84 1013.38 1012.77 1012.18 1011.58 1011.29 1011.52 1011.62 1011.56 1011.48 1011.69 1012.22 1012.90 1012.91 1013.15 1013.57 1014.27 1014.84 1014.99 1014.92 1014.89 1015.20 1015.46 1015.66 1015.77 1015.87 1015.95 1016.06 1016.19 1016.24 1016.26 1016.25 1016.20 1016.06 1016.04 1016.03 1016.13 1016.09 1016.12 1016.01 1015.91 1015.76 1015.67 1015.63 1015.55 1015.38 1015.28
1011.88 1013.08 1013.51 1012.63 1011.97 1011.56 1010.93 1011.35 1011.32 1012.12 1011.60 1010.99 1011.42 1012.16 1012.53 1012.61 1013.01 1013.72 1014.67 1015.07 1015.19 1015.16 1015.04 1015.30 1015.56 1015.76 1015.87 1015.96 1016.04 1016.13 1016.13 1016.16 1016.18 1016.19 1016.14 1016.12 1016.03 1015.96 1015.95 1015.96 1015.90 1015.86 1015.72 1015.59 1015.51 1015.44 1015.29 1015.17 1015.09
1011.44 1012.90 1013.17 1011.88 1011.38 1011.32 1011.11 1011.34 1011.58 1011.48 1010.93 1011.05 1011.18 1011.29 1011.41 1012.19 1013.23 1014.10 1014.81 1015.29 1015.46 1015.52 1015.52 1015.50 1015.67 1015.83 1015.94 1016.06 1016.12 1016.13 1016.14 1016.21 1016.23 1016.24 1016.21 1016.24 1016.30 1016.25 1016.18 1016.08 1015.95 1015.84 1015.71 1015.55 1015.42 1015.25 1015.11 1014.97 1014.90
1011.37 1012.54 1011.94 1010.76 1010.38 1010.59 1010.50 1010.51 1010.65 1010.84 1010.97 1011.09 1011.03 1011.15 1011.62 1012.12 1012.96 1013.90 1014.62 1014.95 1015.35 1015.51 1015.65 1015.70 1015.61 1015.74 1015.87 1015.86 1016.16 1016.34 1016.36 1016.46 1016.53 1016.51 1016.44 1016.45 1016.40 1016.27 1016.14 1016.07 1015.91 1015.80 1015.70 1015.58 1015.44 1015.23 1015.06 1014.89 1014.85
1010.86 1011.21 1010.90 1010.13 1009.63 1009.78 1009.93 1010.14 1010.39 1010.71 1011.08 1010.51 1010.73 1011.16 1011.72 1012.11 1012.92 1013.47 1013.95 1014.13 1014.71 1015.27 1015.57 1015.64 1015.65 1015.55 1015.76 1015.95 1016.32 1016.56 1016.61 1016.69 1016.75 1016.62 1016.56 1016.45 1016.34 1016.27 1016.23 1016.24 1016.15 1016.01 1015.80 1015.75 1015.57 1015.36 1015.14 1014.92 1014.75
1010.28 1009.54 1009.45 1009.08 1009.04 1009.30 1009.26 1009.53 1009.90 1010.06 1009.62 1009.57 1010.39 1010.80 1011.38 1011.83 1012.26 1013.06 1013.55 1014.10 1014.60 1015.07 1015.26 1015.40 1015.37 1015.41 1015.63 1016.01 1016.34 1016.48 1016.72 1016.78 1016.74 1016.61 1016.55 1016.59 1016.61 1016.50 1016.40 1016.32 1016.07 1015.96 1015.69 1015.65 1015.54 1015.48 1015.17 1014.92 1014.69
1009.97 1009.30 1008.83 1007.72 1008.31 1008.12 1008.64 1008.78 1009.26 1009.50 1009.71 1009.95 1010.56 1010.98 1011.31 1011.71 1012.13 1012.70 1013.15 1013.95 1014.47 1014.91 1015.12 1015.15 1015.42 1015.47 1015.47 1015.92 1016.21 1016.36 1016.54 1016.55 1016.48 1016.53 1016.43 1016.52 1016.65 1016.76 1016.72 1016.47 1016.43 1016.32 1016.17 1016.00 1015.81 1015.49 1015.22 1015.02 1014.68
1009.23 1008.92 1008.13 1007.35 1007.27 1007.63 1008.13 1008.76 1009.24 1009.53 1009.98 1010.32 1010.75 1011.03 1011.44 1011.70 1012.03 1012.55 1013.18 1013.78 1014.29 1014.56 1014.83 1014.85 1015.28 1015.32 1015.16 1015.74 1015.99 1016.15 1016.24 1016.33 1016.56 1016.59 1016.73 1016.76 1016.85 1016.94 1016.93 1016.77 1016.64 1016.48 1016.33 1016.05 1015.88 1015.63 1015.38 1015.12 1014.73
1008.96 1008.78 1007.99 1007.55 1007.33 1007.87 1007.96 1009.42 1009.39 1009.07 1009.65 1010.16 1010.55 1011.20 1011.50 1011.58 1011.81 1011.69 1012.06 1013.02 1013.64 1014.14 1014.20 1014.58 1014.95 1014.75 1015.05 1015.54 1015.81 1016.12 1016.44 1016.63 1016.64 1016.75 1016.82 1016.97 1017.09 1017.10 1016.98 1016.95 1016.92 1016.71 1016.42 1016.17 1015.82 1015.47 1015.29 1015.16 1014.75
1009.32 1009.16 1008.93 1007.77 1007.36 1007.73 1007.63 1009.23 1009.15 1009.20 1009.47 1010.12 1010.73 1011.23 1011.37 1011.33 1011.10 1011.44 1011.83 1012.51 1013.23 1013.49 1013.70 1013.88 1014.43 1014.63 1014.87 1015.30 1015.61 1016.07 1016.48 1016.83 1017.12 1017.33 1017.50 1017.57 1017.55 1017.47 1017.31 1017.24 1017.23 1016.91 1016.59 1016.36 1016.27 1016.06 1015.79 1015.47 1015.12
1010.36 1009.97 1009.40 1008.57 1007.90 1007.88 1008.43 1009.19 1008.79 1008.94 1009.55 1010.17 1010.63 1010.74 1010.91 1011.14 1011.40 1011.41 1011.58 1011.96 1012.22 1012.31 1012.91 1013.67 1013.67 1013.88 1014.40 1015.01 1015.53 1016.12 1016.63 1017.03 1017.49 1017.68 1017.82 1017.77 1017.60 1017.55 1017.60 1017.59 1017.49 1017.22 1017.02 1016.91 1016.76 1016.39 1016.10 1015.73 1015.10
1010.86 1010.34 1009.60 1008.95 1008.12 1008.02 1008.44 1008.77 1008.94 1009.39 1009.85 1009.97 1009.95 1010.36 1010.54 1010.80 1010.44 1010.73 1011.06 1011.25 1011.54 1012.07 1013.02 1013.69 1014.20 1014.38 1014.90 1015.47 1016.17 1016.68 1017.17 1017.69 1017.82 1017.97 1018.07 1018.01 1018.00 1017.89 1017.85 1017.83 1017.72 1017.49 1017.28 1017.03 1016.79 1016.51 1016.14 1015.88 1015.27
1010.76 1010.51 1010.26 1009.13 1008.41 1008.70 1008.49 1008.52 1008.66 1008.85 1009.69 1009.90 1010.08 1010.45 1010.41 1010.02 1010.13 1010.70 1010.92 1011.32 1012.52 1013.16 1013.86 1014.40 1014.86 1015.45 1015.75 1016.34 1016.91 1017.36 1017.98 1018.23 1018.45 1018.43 1018.41 1018.48 1018.46 1018.33 1018.18 1017.96 1017.75 1017.53 1017.43 1017.31 1017.05 1016.65 1016.28 1015.75 1015.24
1010.46 1010.40 1009.93 1008.95 1008.44 1008.99 1008.74 1008.63 1008.51 1008.84 1008.77 1008.67 1009.18 1009.86 1010.06 1010.49 1010.50 1010.95 1011.85 1012.78 1013.42 1014.15 1014.87 1015.38 1015.54 1016.08 1016.59 1016.88 1017.46 1017.87 1018.20 1018.52 1018.75 1018.86 1019.03 1018.81 1018.68 1018.40 1018.02 1017.99 1017.94 1017.81 1017.66 1017.42 1017.06 1016.67 1016.18 1015.74 1015.29
1009.89 1010.15 1009.95 1009.82 1009.17 1009.38 1009.57 1009.55 1009.11 1009.23 1009.31 1009.44 1009.75 1009.76 1010.22 1010.26 1010.42 1011.56 1012.95 1013.74 1014.36 1015.17 1015.75 1016.11 1016.57 1016.89 1017.35 1017.73 1017.90 1018.16 1018.34 1018.62 1019.10 1019.29 1019.33 1019.24 1018.86 1018.58 1018.22 1017.92 1017.81 1017.75 1017.46 1017.14 1016.66 1016.20 1015.77 1015.06 1014.78
1009.70 1009.09 1009.57 1009.89 1010.39 1010.51 1010.47 1010.97 1009.97 1009.65 1009.87 1009.70 1009.34 1009.36 1009.44 1009.86 1010.78 1012.32 1013.24 1014.31 1015.01 1016.05 1016.51 1016.84 1017.16 1017.72 1018.28 1018.59 1018.83 1019.13 1019.93 1019.96 1020.24 1020.10 1019.80 1019.50 1018.98 1018.66 1018.26 1017.86 1017.55 1017.28 1016.95 1016.60 1016.11 1015.70 1015.33 1014.94 1014.35
1008.68 1008.92 1009.67 1010.34 1011.14 1011.56 1011.66 1011.83 1010.71 1010.30 1009.96 1009.84 1010.05 1010.25 1009.82 1010.16 1011.14 1012.52 1013.70 1014.87 1015.82 1016.61 1017.30 1017.79 1018.13 1018.64 1019.11 1019.28 1019.67 1020.36 1020.75 1020.90 1020.73 1020.49 1020.11 1019.68 1019.37 1018.95 1018.15 1017.67 1017.34 1017.03 1016.68 1016.31 1015.92 1015.42 1015.00 1014.61 1014.11
1008.49 1009.38 1010.71 1011.78 1012.39 1013.00 1012.72 1012.81 1012.46 1011.94 1011.70 1011.11 1011.51 1011.76 1010.95 1011.22 1012.33 1013.26 1014.44 1015.39 1016.71 1017.57 1018.17 1018.73 1018.95 1019.37 1019.62 1019.93 1020.47 1020.93 1021.05 1021.13 1020.77 1020.70 1020.65 1020.16 1019.61 1018.94 1018.29 1017.76 1017.28 1016.78 1016.35 1015.94 1015.48 1014.97 1014.48 1014.04 1013.55
1008.96 1010.53 1012.19 1013.38 1014.07 1014.14 1013.45 1013.69 1013.97 1013.28 1012.85 1012.71 1013.07 1013.22 1012.93 1013.09 1013.86 1015.02 1015.63 1016.51 1017.80 1019.08 1019.89 1019.27 1019.92 1020.47 1020.57 1020.93 1021.15 1021.30 1021.10 1020.97 1021.30 1021.47 1021.03 1020.51 1019.96 1019.03 1018.23 1017.70 1017.28 1016.67 1016.08 1015.70 1015.22 1014.71 1014.16 1013.64 1013.15
1009.23 1010.46 1012.32 1013.80 1015.11 1014.54 1013.60 1013.89 1014.27 1013.97 1013.60 1013.62 1014.15 1014.79 1015.50 1015.70 1016.30 1016.71 1017.62 1018.42 1019.37 1019.34 1019.62 1021.80 1020.79 1021.14 1021.34 1021.43 1021.56 1021.21 1021.25 1021.48 1021.34 1021.11 1020.67 1020.33 1019.80 1018.85 1018.02 1017.59 1017.27 1016.62 1016.01 1015.27 1014.76 1014.27 1013.72 1013.21 1012.65
1009.27 1010.66 1011.43 1013.59 1015.29 1015.26 1014.58 1014.61 1014.05 1014.06 1014.19 1014.53 1015.43 1016.23 1017.04 1017.81 1018.15 1018.72 1019.54 1019.90 1019.95 1021.99 1020.72 1022.18 1022.10 1022.14 1021.91 1021.61 1021.63 1021.77 1021.79 1021.55 1021.64 1021.29 1020.73 1019.91 1019.09 1018.56 1018.04 1017.61 1017.13 1016.33 1015.58 1015.01 1014.45 1013.83 1013.23 1012.67 1012.05
1008.43 1009.95 1011.86 1013.79 1015.72 1016.37 1015.51 1015.36 1015.42 1015.08 1014.84 1015.32 1016.11 1017.03 1018.04 1018.82 1019.31 1019.78 1020.50 1020.99 1021.04 1022.98 1023.14 1021.77 1022.79 1022.59 1022.36 1022.00 1021.93 1021.88 1021.88 1021.73 1021.57 1021.21 1020.55 1019.75 1019.00 1018.54 1018.18 1017.61 1016.95 1016.23 1015.50 1014.79 1014.14 1013.50 1012.82 1012.15 1011.42
1009.23 1010.44 1012.23 1014.11 1015.66 1016.59 1016.55 1016.14 1015.34 1015.45 1015.22 1015.86 1017.02 1017.52 1018.14 1019.00 1019.74 1020.20 1020.91 1021.44 1021.78 1022.67 1023.73 1023.11 1023.30 1022.98 1022.51 1021.97 1022.24 1022.28 1021.87 1021.55 1021.50 1020.95 1020.20 1019.67 1019.00 1018.62 1018.19 1017.59 1016.92 1016.27 1015.49 1014.75 1014.05 1013.34 1012.55 1011.75 1011.00
1009.44 1010.97 1012.26 1014.03 1016.19 1016.76 1016.67 1015.85 1015.01 1015.29 1015.28 1015.54 1016.72 1017.50 1018.26 1018.66 1019.19 1019.66 1019.95 1021.07 1020.62 1021.88 1022.88 1023.50 1023.66 1023.62 1022.49 1022.13 1022.46 1022.45 1021.95 1021.49 1021.15 1020.53 1019.93 1019.42 1018.97 1018.55 1018.09 1017.56 1016.98 1016.38 1015.68 1014.88 1014.18 1013.38 1012.51 1011.69 1010.88
Wind_Speed
3 2 2 4 5 6 3 1 2 5 1 1 5 6 8 6 0 3 4 6 10 6 4 5 8 10 11 11 11 10 10 9 9 9 9 8 7 7 6 5 4 4 4 4 3 2 3 3 3
2 2 4 3 6 5 1 4 4 9 11 14 7 3 4 3 3 7 4 7 8 7 5 5 10 10 12 11 10 9 9 8 8 8 7 7 6 6 5 4 3 2 1 1 1 2 3 4 5
3 2 4 5 4 4 5 6 10 4 7 5 4 2 5 4 3 7 6 10 8 6 5 6 10 10 11 11 10 9 8 7 7 6 6 5 4 3 2 1 1 2 3 4 5 5 5 6 7
2 5 5 6 0 1 6 7 5 2 3 4 3 2 4 5 9 6 11 10 8 7 6 7 9 10 11 10 10 8 8 7 6 5 4 4 3 2 0 1 2 4 5 6 7 7 7 8 9
5 4 5 4 3 3 2 7 7 5 2 3 5 3 4 3 13 16 12 10 7 6 6 7 9 9 9 10 9 8 7 6 5 4 3 2 2 1 2 4 4 5 7 7 9 8 7 8 9
5 3 5 2 1 2 1 6 7 3 3 7 6 3 3 12 15 11 11 9 6 8 6 6 9 8 8 9 8 7 7 6 5 4 1 1 2 2 4 4 5 6 7 8 9 8 8 8 9
6 5 2 2 2 2 6 8 6 7 6 6 10 4 4 9 11 11 8 7 7 6 7 6 6 8 9 8 8 7 6 6 5 4 3 3 1 2 3 4 5 6 7 8 8 8 9 9 9
6 5 1 3 3 4 6 6 4 3 4 4 6 6 8 12 14 11 8 6 6 6 6 6 5 5 5 4 7 7 6 6 5 5 5 7 9 8 5 4 3 4 6 5 6 6 5 5 5
4 6 1 5 2 1 3 3 5 5 5 1 6 5 10 18 15 12 9 5 4 5 4 5 6 6 5 5 5 5 5 5 5 5 6 6 4 4 4 4 4 4 4 4 4 4 3 4 5
6 5 9 4 4 6 11 6 7 2 6 4 3 5 13 18 16 14 11 9 6 5 4 5 6 7 6 4 4 3 2 1 2 2 3 3 3 2 2 1 5 6 6 7 8 7 7 5 3
4 6 6 6 3 15 15 8 8 7 6 7 13 15 17 18 15 15 13 14 13 8 5 7 6 7 7 4 3 1 1 1 0 2 2 1 0 1 2 2 3 3 5 4 5 6 4 5 4
2 7 6 4 8 7 8 8 7 10 7 9 14 18 19 18 17 15 14 11 10 9 9 8 7 7 7 4 4 4 3 2 2 3 3 2 1 3 3 3 4 4 3 5 4 3 6 6 6
4 5 5 11 8 13 8 11 10 14 2 9 12 14 19 16 15 12 12 8 8 8 8 9 7 7 6 6 4 4 4 4 4 3 4 2 3 4 5 5 5 5 5 4 5 5 5 6 6
4 6 9 6 3 4 12 5 9 6 8 12 13 14 14 15 13 8 10 10 10 8 9 8 8 7 8 6 6 4 3 4 2 3 3 4 3 3 4 4 4 4 4 4 4 4 4 4 5
4 5 8 2 1 6 13 5 14 8 14 15 15 8 8 11 12 19 18 16 15 10 9 9 9 8 8 8 6 4 2 2 2 4 6 8 6 5 5 4 4 4 4 6 5 5 4 5 6
5 5 3 5 4 5 4 9 7 13 17 15 12 8 10 10 19 17 18 17 14 14 15 13 11 10 9 8 5 3 4 4 5 6 4 6 5 6 5 4 5 5 5 4 5 4 5 4 5
7 1 2 9 2 3 4 4 8 11 15 14 12 10 11 9 9 16 20 20 20 19 17 14 11 11 9 7 5 5 7 6 5 5 4 6 6 7 5 4 4 5 4 4 4 3 3 5 7
3 4 5 4 6 5 4 8 11 12 11 16 16 11 14 15 20 20 20 19 18 13 7 5 3 6 6 6 6 5 7 6 5 4 6 7 6 8 6 4 4 4 3 4 5 5 3 6 8
1 1 3 7 5 2 8 8 17 20 8 13 12 10 15 19 15 15 14 11 7 6 7 5 8 6 5 4 4 4 4 3 4 4 7 6 5 5 4 3 4 5 5 5 6 4 6 7 5
3 2 9 9 5 6 6 11 7 15 21 21 18 13 16 11 9 11 5 5 6 7 9 10 10 9 7 4 3 3 3 3 4 4 5 6 6 6 7 5 4 5 4 6 5 5 6 4 4
4 3 4 7 5 2 2 8 2 2 4 1 7 9 6 15 18 10 7 7 9 11 10 11 11 11 9 7 4 4 4 3 3 3 2 4 7 6 6 5 4 5 4 4 6 6 7 8 6
6 8 7 3 3 1 3 5 5 2 6 8 16 15 16 14 11 8 12 11 13 12 11 12 12 12 10 7 7 10 4 3 3 3 4 5 6 7 7 6 6 6 4 6 7 8 8 8 9
11 7 6 3 4 3 5 5 9 4 6 6 4 9 11 6 12 14 15 16 14 13 12 11 12 12 10 11 10 6 4 2 2 3 6 6 7 7 7 7 7 7 6 7 10 11 10 8 8
4 5 8 5 4 4 2 5 7 5 7 8 6 7 9 12 15 17 17 17 15 12 12 10 12 11 10 11 9 6 6 3 4 6 5 5 4 6 6 8 8 9 9 9 10 11 11 10 10
6 8 3 4 6 5 3 4 2 9 9 6 5 8 10 14 16 15 17 16 15 12 10 10 10 10 10 8 6 5 5 7 6 5 4 6 6 5 7 8 9 9 10 10 10 10 11 10 10
4 9 8 5 4 5 3 1 5 6 5 11 10 9 11 14 13 16 15 14 13 13 15 8 9 9 6 5 4 6 7 2 2 3 4 4 4 6 9 9 8 11 10 10 10 8 8 10 9
3 3 5 8 3 3 3 4 4 8 8 9 12 12 13 12 14 16 15 15 14 8 12 6 6 4 5 5 5 5 3 5 5 7 5 4 5 7 10 10 10 11 11 11 11 8 10 10 10
6 6 4 4 4 4 4 3 4 6 6 3 11 12 12 12 13 14 13 12 11 9 7 9 5 4 4 4 4 3 4 4 4 5 6 7 7 8 10 11 11 12 11 12 11 9 10 11 8
2 2 7 7 5 6 1 5 6 5 4 1 7 9 12 12 11 12 11 10 10 8 5 6 2 2 3 5 4 4 5 5 6 6 6 6 6 8 9 10 11 12 12 12 11 11 11 12 11
4 4 5 7 3 2 4 6 6 7 5 10 12 12 12 13 14 13 13 9 9 8 4 4 5 5 3 2 3 5 6 5 6 6 7 7 7 8 8 9 10 11 12 12 11 12 12 12 11
Wind_Direction
264 264 178 48 58 63 82 71 240 181 200 172 139 190 133 37 48 184 19 121 120 133 162 141 133 125 119 115 114 113 109 110 112 113 112 106 100 100 96 92 89 74 70 60 48 35 22 8 357
288 145 46 82 82 56 344 229 175 204 156 127 83 82 54 74 63 119 106 136 129 145 153 145 139 132 125 119 118 119 120 117 117 119 119 120 123 122 124 133 118 89 50 32 1 343 334 332 325
248 55 79 91 103 138 184 190 221 290 153 88 112 278 109 122 105 143 127 138 131 134 147 153 131 124 123 122 120 117 118 120 121 117 123 131 128 125 149 133 30 350 331 316 310 308 313 305 294
85 15 31 77 338 228 200 188 221 121 9 19 149 131 70 171 154 145 130 131 129 141 141 134 125 120 124 124 123 120 119 117 112 113 124 118 127 161 260 359 311 303 301 302 303 305 305 303 305
35 58 56 79 291 277 236 181 165 146 96 154 152 172 88 23 112 126 138 137 145 142 137 128 123 122 123 121 118 114 112 111 113 109 104 122 178 262 293 278 283 292 297 302 304 307 303 299 300
32 90 53 58 288 294 34 192 141 157 171 125 125 117 78 130 127 146 141 143 157 139 130 125 131 130 130 130 129 129 131 132 120 119 110 277 258 251 260 278 290 301 302 302 310 308 306 301 300
110 78 168 197 219 235 197 159 178 164 165 157 155 85 112 138 146 141 132 139 144 135 125 129 138 147 143 140 139 140 142 134 120 84 30 20 338 245 257 292 310 313 310 304 305 310 311 316 311
108 87 26 281 194 199 206 152 132 132 209 86 143 176 173 171 151 129 124 121 134 143 146 152 153 142 141 144 150 148 143 131 108 77 70 65 54 77 73 31 359 338 340 336 320 322 320 331 337
120 65 229 259 171 123 137 196 136 225 124 205 192 159 168 146 131 122 121 112 135 144 156 158 151 154 153 154 161 155 152 134 105 84 89 72 69 62 63 41 37 40 7 347 324 302 307 335 339
95 118 219 238 127 163 179 170 162 137 127 240 80 108 149 145 145 148 160 162 167 163 186 188 165 158 156 158 148 162 193 129 139 143 142 128 142 161 167 358 4 357 348 340 336 320 312 323 306
157 184 199 250 137 155 184 169 168 139 203 212 171 156 163 158 159 166 175 170 176 174 184 190 179 166 165 164 164 181 204 179 249 197 153 189 70 326 351 333 327 324 314 316 314 308 293 293 288
284 240 223 208 206 189 190 153 184 180 211 188 170 169 165 169 171 173 180 172 165 174 191 190 202 176 175 156 177 186 194 208 226 230 213 214 275 281 278 271 265 272 270 282 281 293 292 292 291
198 268 260 252 172 214 150 190 164 195 291 150 160 169 181 172 175 180 175 163 161 175 189 203 195 194 172 164 182 191 192 204 231 236 239 229 292 302 323 318 335 336 341 336 325 315 309 306 312
222 244 279 294 264 172 151 170 119 211 156 165 179 181 189 177 169 139 154 158 170 171 185 171 187 193 155 160 170 179 187 218 226 269 346 347 316 315 319 323 337 343 343 335 327 322 317 312 315
257 323 339 329 54 86 109 61 217 180 172 181 195 180 191 188 165 175 172 166 171 183 170 172 182 172 158 167 162 167 184 99 17 29 31 48 43 40 32 26 4 336 328 325 325 322 320 317 318
27 47 43 286 5 176 85 212 225 179 172 194 195 178 191 196 187 175 171 172 179 173 182 181 182 175 167 164 163 113 76 74 73 77 65 51 44 36 20 8 349 340 343 348 349 340 326 317 308
10 316 341 325 360 112 83 244 236 182 185 193 196 187 191 194 198 185 179 181 185 184 185 182 188 168 161 145 107 81 79 68 62 60 49 31 30 27 30 18 360 352 348 350 336 327 314 321 317
235 343 330 285 302 12 304 223 180 193 193 201 203 192 192 192 202 190 188 189 188 182 152 177 126 129 124 96 88 82 80 66 59 50 37 30 26 25 25 13 359 348 346 347 345 331 318 309 305
112 183 274 268 257 245 253 260 192 195 195 214 209 201 205 203 198 200 203 194 122 105 98 103 99 59 70 68 95 72 78 77 48 44 46 41 32 23 20 357 356 355 1 335 318 300 307 314 301
215 307 295 290 272 157 294 278 206 184 204 204 202 206 212 204 209 205 184 97 80 86 82 76 78 72 62 65 67 89 107 85 82 52 38 26 16 357 354 344 344 344 319 311 301 296 303 291 289
250 196 241 233 342 131 19 331 58 188 286 120 287 249 236 211 206 179 116 101 94 89 92 88 80 75 65 54 55 52 50 40 21 18 12 352 352 343 335 326 305 285 280 280 278 276 282 303 298
267 212 211 158 95 216 53 275 307 109 208 218 225 220 224 205 209 124 122 109 107 99 91 83 78 74 63 51 61 54 18 38 5 342 334 330 333 330 321 301 295 285 282 287 305 311 301 300 295
226 156 178 124 107 78 347 73 273 349 326 294 330 313 268 227 143 132 123 113 104 100 95 89 85 75 66 63 63 48 64 52 337 328 346 347 330 308 304 314 309 307 314 312 308 303 295 287 282
131 90 49 55 92 52 244 120 285 326 296 312 0 353 30 88 103 112 110 104 95 90 85 78 77 70 65 65 49 57 63 16 18 5 345 324 298 301 312 313 318 317 308 306 306 301 294 291 283
72 60 358 354 12 212 159 94 262 321 329 8 26 41 78 97 105 101 101 99 91 77 64 86 71 65 60 51 50 57 54 34 15 325 313 324 317 309 315 319 322 312 315 310 308 303 296 291 285
198 149 152 206 187 242 285 279 322 317 11 60 56 59 63 73 78 88 86 82 80 94 83 15 64 64 44 65 61 41 38 10 312 299 305 293 282 301 314 319 308 311 302 306 303 297 295 291 285
197 173 185 102 34 74 263 115 266 354 32 69 67 61 60 62 70 73 66 61 67 53 80 57 46 47 59 57 45 33 9 9 334 317 297 285 297 325 327 320 317 316 319 316 312 307 301 294 286
163 156 90 20 146 216 285 98 223 329 331 48 97 94 86 76 77 76 70 71 77 43 12 70 26 42 42 53 41 30 354 326 318 309 323 322 323 323 324 326 328 327 325 324 322 311 304 299 295
5 52 50 106 107 157 180 265 216 232 231 97 107 108 113 103 97 96 91 94 80 63 6 22 8 44 58 44 13 342 331 328 313 305 306 307 313 320 324 329 332 332 333 332 327 322 316 314 315
104 112 126 115 203 107 137 269 175 220 251 148 137 125 122 125 133 137 136 133 114 119 68 19 354 340 12 17 347 322 313 315 311 317 317 313 308 315 312 322 337 336 332 333 334 333 332 335 332